This is the latest recevied weather packets stored in our database for station/object ke5jzm-1. If no packets are shown the sender has not sent any weather packets the latest 10 day(s).
| Time | Temp. | Humidity | Pressure | Rain* | Wind** | Luminosity | Snow |
|---|---|---|---|---|---|---|---|
| 1778096326 | 25.56° C | 62% | 1012 hPa | 0 mm | - | 281 W/m² | - |
| 1778096146 | 25.56° C | 62% | 1012.1 hPa | 0 mm | - | 342 W/m² | - |
| 1778096027 | 25.56° C | 62% | 1012 hPa | 0 mm | - | 327 W/m² | - |
| 1778095847 | 25.56° C | 62% | 1012.1 hPa | 0 mm | - | 419 W/m² | - |
| 1778095727 | 25.56° C | 62% | 1012.2 hPa | 0 mm | - | 367 W/m² | - |
| 1778095546 | 25.56° C | 62% | 1012.2 hPa | 0 mm | - | 347 W/m² | - |
| 1778095427 | 25.56° C | 62% | 1012.2 hPa | 0 mm | - | 280 W/m² | - |
| 1778095378 | 25.56° C | 62% | 1012.2 hPa | 0 mm | - | 274 W/m² | - |
| 1778095185 | 25.56° C | 62% | 1012.2 hPa | 0 mm | - | 589 W/m² | - |
| 1778095126 | 25.56° C | 62% | 1012.2 hPa | 0 mm | - | 468 W/m² | - |
| 1778095067 | 25.56° C | 62% | 1012.2 hPa | 0 mm | - | 581 W/m² | - |
| 1778095006 | 25.56° C | 62% | 1012.4 hPa | 0 mm | - | 283 W/m² | - |
| 1778094947 | 25.56° C | 62% | 1012.3 hPa | 0 mm | - | 251 W/m² | - |
| 1778094825 | 25.56° C | 62% | 1012.4 hPa | 0 mm | - | 260 W/m² | - |
| 1778094525 | 25.56° C | 62% | 1012.4 hPa | 0 mm | - | 192 W/m² | - |
| 1778093985 | 25.56° C | 62% | 1012.6 hPa | 0 mm | - | 194 W/m² | - |
| 1778093446 | 25.56° C | 62% | 1012.7 hPa | 0 mm | - | 172 W/m² | - |
| 1778092517 | 25.56° C | 62% | 1012.7 hPa | 0 mm | - | 200 W/m² | - |
| 1778092277 | 25.56° C | 62% | 1012.8 hPa | 0 mm | - | 176 W/m² | - |
| 1778092097 | 25.56° C | 62% | 1012.9 hPa | 0 mm | - | 179 W/m² | - |
| 1778092038 | 25° C | 62% | 1012.9 hPa | 0 mm | - | 196 W/m² | - |
| 1778091857 | 25.56° C | 62% | 1012.9 hPa | 0 mm | - | 198 W/m² | - |
| 1778091617 | 25.56° C | 62% | 1012.9 hPa | 0 mm | - | 224 W/m² | - |
| 1778091497 | 25.56° C | 62% | 1012.9 hPa | 0 mm | - | 238 W/m² | - |
| 1778091437 | 25.56° C | 62% | 1013 hPa | 0 mm | - | 284 W/m² | - |
* Rain latest hour (hover to see other rain measurements)
** Current wind speed in m/s (hover to see current wind gust speed)